Wind_Speed
19 26 22 21 22 22 22 24 22 21 20 20 20 18 16 16 17 17 17 16 16 15 13 12 12 13 13 15 16 16 15 14 14 14 15 15 15 15 13 12 14 17 18
22 27 23 21 23 21 22 22 22 22 21 20 19 16 15 16 15 15 14 14 14 13 13 14 14 15 16 16 15 16 17 18 19 20 21 19 18 16 15 14 18 17 17
22 25 22 22 24 21 21 21 22 24 23 22 18 15 15 15 15 14 14 14 14 14 15 15 16 17 16 16 17 19 22 21 19 17 17 21 21 19 19 19 19 20 18
21 23 26 22 21 24 22 22 22 23 23 20 16 16 16 15 14 14 14 14 14 16 16 17 17 17 17 17 19 19 17 11 15 15 15 17 19 20 20 21 20 20 20
19 17 26 22 22 25 24 21 21 21 21 19 18 17 16 15 14 14 14 15 16 17 18 18 18 18 17 20 19 18 19 21 18 19 15 13 18 17 17 18 18 18 18
15 18 23 24 23 26 24 23 23 23 22 19 19 17 16 16 15 15 16 16 18 19 19 18 20 19 21 19 19 17 21 19 22 22 21 21 19 17 18 20 20 19 18
8 21 18 25 24 25 27 25 25 24 22 19 20 19 17 16 16 15 16 17 19 19 19 20 20 20 20 19 17 22 21 18 22 22 24 24 22 19 19 20 20 19 19
3 18 23 23 26 25 28 27 27 26 21 20 20 20 19 17 17 16 17 18 19 20 20 21 21 21 19 20 24 22 20 20 25 25 21 16 14 16 16 15 15 17 16
8 7 28 26 27 29 27 29 28 27 22 22 21 21 21 20 19 18 18 20 20 20 21 21 21 20 21 24 21 23 23 24 27 23 18 15 16 15 14 16 16 16 15
11 7 26 31 28 33 28 28 29 29 24 23 22 22 23 22 21 20 20 21 21 22 22 21 21 21 25 24 24 25 22 21 22 23 20 18 17 18 18 18 16 17 17
14 12 20 31 33 35 32 31 31 30 26 25 23 24 24 22 22 22 23 21 22 23 22 21 20 25 26 25 23 17 22 23 23 22 19 16 16 17 17 17 16 16 17
13 19 15 30 33 36 34 34 34 32 29 28 27 27 23 23 24 24 24 22 22 23 22 21 22 27 28 25 16 20 22 22 22 21 17 17 16 16 16 16 16 16 16
19 19 15 27 33 36 35 35 36 35 33 30 29 27 24 24 25 25 26 23 24 24 21 22 26 27 27 19 12 29 26 23 23 20 17 16 16 16 16 16 15 15 16
18 18 20 21 34 35 37 37 36 35 36 34 31 27 27 29 28 30 29 27 27 26 24 24 27 29 22 15 18 26 23 24 22 20 17 15 15 15 15 15 15 16 15
18 20 21 19 28 34 37 35 36 34 38 36 33 30 30 31 31 32 31 29 29 26 25 28 27 26 19 15 24 24 23 23 23 21 19 17 16 15 14 15 15 15 15
25 22 21 21 22 32 36 38 35 34 38 37 34 36 31 35 34 33 32 31 30 28 27 29 25 24 18 21 19 24 23 22 20 19 17 18 17 15 14 14 15 14 15
29 28 27 25 27 31 36 43 32 38 38 40 37 41 31 38 33 32 34 34 32 27 29 23 22 25 24 23 22 25 24 20 17 18 15 14 13 17 15 14 14 14 13
27 27 27 28 27 26 26 4 7 35 44 44 41 42 38 39 32 33 34 34 34 29 29 23 27 26 26 26 26 26 23 18 16 17 16 14 13 16 16 15 15 14 14
23 25 24 21 22 24 23 6 24 13 32 47 44 41 40 36 34 36 35 33 30 33 29 30 27 28 30 28 25 24 21 21 19 18 15 14 13 13 13 12 12 13 14
15 23 20 19 17 15 8 7 11 15 4 14 47 42 37 37 36 38 36 34 33 33 31 31 31 30 30 31 28 24 24 22 22 19 16 14 12 11 10 9 8 8 8
12 13 16 24 25 26 22 18 20 14 7 6 21 39 36 36 34 36 35 36 33 34 33 35 33 32 31 33 27 25 21 18 16 13 13 13 11 10 9 8 6 6 6
10 10 17 25 26 25 27 28 29 15 10 3 15 25 29 34 34 35 37 37 35 35 34 36 36 30 33 35 20 21 3 8 14 15 12 12 12 12 10 8 6 4 3
11 14 18 25 30 27 31 30 21 21 19 6 7 23 27 32 35 36 38 38 38 38 37 37 38 32 29 27 37 10 3 4 8 13 15 13 13 12 10 8 6 4 2
11 14 18 22 27 27 33 32 37 39 30 30 23 27 30 33 34 34 36 37 38 39 38 38 38 37 38 28 33 11 9 15 4 3 14 17 16 15 11 9 7 5 2
10 15 17 21 26 21 29 30 32 27 30 28 31 29 30 31 33 32 35 36 38 38 40 41 39 40 42 34 31 18 17 15 12 5 3 10 18 17 13 11 7 6 4
10 12 15 19 23 26 23 27 29 25 21 22 26 23 33 35 35 34 37 39 39 40 42 42 42 41 41 35 34 27 20 11 12 6 3 11 14 15 16 13 10 7 5
Wind_Direction
162 163 171 159 153 156 156 153 154 152 147 141 136 132 133 130 129 126 128 126 125 125 125 123 120 118 116 111 111 107 101 95 95 95 96 94 98 83 109 78 90 80 75
164 170 171 162 160 160 161 159 158 153 151 151 139 138 140 141 139 131 130 128 125 124 122 119 115 114 116 119 118 115 110 108 105 104 102 100 104 98 96 98 94 88 76
163 173 169 172 168 165 165 160 159 158 158 151 147 150 144 147 143 135 134 132 129 128 126 124 121 120 121 121 123 123 120 111 107 99 95 87 83 99 95 97 98 93 86
166 170 169 174 175 169 169 171 166 166 158 151 153 156 151 148 144 140 139 136 134 130 129 128 126 125 125 126 126 124 117 114 123 101 101 94 86 82 84 88 85 82 82
168 171 175 178 178 176 176 176 171 169 158 158 162 155 154 151 150 146 143 141 137 134 132 131 128 126 126 125 122 118 113 100 119 110 91 101 93 88 86 85 84 80 77
192 176 181 179 185 182 180 183 181 177 173 164 159 158 155 154 154 150 147 144 140 137 135 131 128 126 126 123 119 113 112 112 113 107 97 100 97 95 89 87 87 84 81
145 186 179 182 193 192 185 188 187 182 178 167 164 159 157 157 155 154 151 146 142 138 135 131 130 132 128 122 111 114 124 117 113 109 106 98 93 93 91 88 86 82 75
61 201 191 183 189 199 189 192 189 184 182 174 168 162 159 159 157 158 153 148 145 142 138 138 133 136 131 121 117 115 122 121 117 109 103 102 100 89 93 92 89 78 76
343 215 196 191 189 200 196 192 193 188 182 179 173 166 164 164 159 159 157 152 148 147 144 141 139 138 134 125 118 121 119 121 115 106 97 100 94 92 94 90 86 82 81
308 304 202 198 194 198 199 197 192 190 183 181 178 173 173 170 162 160 159 155 152 150 148 144 142 141 137 125 113 118 124 124 114 110 103 103 96 93 91 90 88 84 81
285 282 217 207 200 199 198 199 193 189 184 181 181 181 177 172 163 162 159 158 155 152 148 146 145 144 138 133 122 118 125 122 117 108 102 105 101 97 94 91 86 84 82
254 270 237 213 209 205 197 198 193 187 185 183 183 185 182 171 166 161 158 160 157 154 150 148 149 144 144 139 126 130 126 123 116 110 115 104 102 99 97 92 89 85 81
244 255 263 221 216 211 199 194 188 185 185 185 186 186 180 171 166 162 161 163 161 157 153 156 149 149 147 144 122 139 129 120 120 121 115 112 107 102 100 98 94 87 84
237 229 254 239 214 212 203 191 189 183 182 185 188 185 175 173 172 168 166 165 165 162 163 154 150 149 142 131 130 142 132 125 125 122 120 115 109 105 100 98 95 92 89
235 233 247 254 225 216 202 187 189 184 184 190 189 183 179 179 175 172 171 169 167 167 166 155 150 156 147 138 142 143 135 136 137 133 128 123 113 102 103 96 101 95 89
243 240 243 247 248 222 208 191 188 186 187 193 190 185 184 185 177 176 174 171 169 171 167 162 164 159 161 149 138 144 139 142 144 143 141 134 126 106 104 103 102 97 93
240 242 241 245 254 231 217 196 193 189 188 193 190 184 188 186 181 181 177 175 171 172 171 169 167 164 154 151 139 142 141 141 149 147 145 142 128 116 107 105 103 98 91
238 236 242 241 245 226 207 207 215 201 186 188 189 183 187 183 183 179 177 177 173 176 174 177 167 162 153 150 138 142 140 136 134 144 137 134 129 125 119 109 103 98 94
236 236 237 229 224 196 190 330 359 273 187 184 186 181 178 180 183 181 179 176 178 175 181 172 170 163 152 146 141 138 142 141 141 144 142 132 124 125 121 115 116 111 94
230 238 231 204 183 169 164 83 313 354 164 191 179 179 176 180 180 178 176 177 177 175 174 175 167 162 155 145 137 131 137 142 143 141 139 142 139 135 124 114 113 107 100
183 187 204 181 150 141 130 123 112 16 28 120 185 175 175 181 180 180 177 177 178 177 174 169 162 158 149 148 129 119 120 141 154 162 160 155 147 139 134 131 128 112 88
163 159 171 178 165 155 150 150 146 135 53 91 257 178 178 180 180 180 179 179 181 173 168 167 165 156 154 154 143 126 103 117 146 157 167 167 159 154 150 148 147 129 82
154 179 183 181 171 163 161 150 131 150 164 193 269 195 187 184 186 185 184 182 184 180 174 176 174 169 160 161 160 140 138 188 144 169 170 176 173 172 168 166 165 161 128
168 193 190 201 192 177 176 173 168 167 171 190 198 213 193 189 186 190 189 189 186 185 181 180 183 179 166 164 173 186 187 150 164 150 184 182 180 181 183 177 171 164 141
189 187 199 196 201 198 188 190 175 172 179 199 191 196 187 193 192 190 189 186 185 185 185 184 183 182 180 177 184 175 160 163 161 144 157 164 177 182 187 184 189 176 165
194 199 202 204 195 205 191 190 184 186 186 176 188 196 188 192 191 193 193 191 191 190 190 189 189 190 188 189 188 190 177 169 178 156 120 165 158 171 178 182 188 190 198
Height
762 763 766 768 770 773 776 777 780 783 786 788 789 792 794 796 797 799 800 802 804 806 807 808 810 811 812 813 814 815 817 818 819 820 821 822 824 825 825 826 826 826 826
759 764 767 769 771 774 777 778 780 783 786 788 790 793 795 797 798 800 801 803 804 806 807 808 809 811 813 814 815 817 819 820 821 822 823 824 825 826 827 827 827 828 828
759 764 767 770 772 775 777 779 781 783 786 788 790 793 796 798 799 801 803 804 805 807 808 809 810 812 813 815 817 819 821 823 824 825 825 826 826 827 828 827 828 829 831
759 762 766 770 772 775 778 779 781 784 786 788 791 794 796 798 800 802 803 805 806 808 809 810 812 813 814 816 818 821 823 824 825 826 827 828 829 829 830 830 831 832 833
761 762 766 770 772 775 777 780 782 785 787 788 791 794 796 798 801 802 804 806 807 808 810 811 813 814 816 818 820 822 824 825 826 827 828 830 831 832 832 832 833 834 835
761 762 765 769 772 774 776 779 782 785 787 789 791 794 796 798 801 803 804 806 808 809 811 812 814 816 818 820 822 824 825 826 827 828 830 832 833 835 835 835 835 836 836
764 764 763 767 771 773 775 778 781 784 786 789 790 792 796 798 801 803 804 806 808 809 811 813 815 817 819 822 823 825 826 828 828 830 832 834 835 836 837 837 837 837 838
762 764 764 763 769 772 774 776 779 782 785 790 791 792 794 797 800 803 805 806 808 810 812 814 816 818 820 823 824 826 828 828 829 831 833 836 837 838 839 839 839 840 841
760 762 763 763 764 769 773 774 778 780 783 789 790 792 793 796 799 802 805 806 808 811 813 815 817 819 821 824 825 827 828 830 831 833 835 838 839 840 841 841 842 842 842
758 760 760 761 762 765 770 773 775 778 782 786 789 791 792 795 798 801 805 807 808 811 813 815 817 819 822 825 827 828 830 832 833 834 838 840 841 842 843 843 844 845 845
756 757 759 760 759 760 765 770 773 776 779 784 788 790 792 794 797 801 804 807 809 811 814 816 818 819 823 826 828 830 831 833 835 837 840 842 843 844 844 845 846 847 847
752 753 754 755 757 759 760 767 770 774 777 781 784 788 791 793 796 799 804 807 810 812 814 817 818 821 824 827 829 830 832 834 836 839 843 844 845 846 846 847 848 849 849
747 749 751 752 754 757 758 763 766 770 772 778 782 786 790 793 796 798 803 807 810 813 816 816 819 822 824 828 830 832 834 835 838 841 844 846 847 848 848 849 850 850 851
743 744 746 749 750 752 755 759 763 765 767 773 779 783 787 790 794 797 801 804 808 812 815 817 819 822 825 829 831 833 835 837 840 842 846 848 849 850 850 850 851 852 852
739 739 741 744 746 749 750 755 757 760 762 768 774 779 783 786 791 795 799 803 807 811 814 817 820 823 825 829 832 833 835 838 841 844 847 849 850 851 852 852 853 853 854
732 734 736 738 741 746 746 749 752 755 758 764 769 774 779 783 787 792 796 801 805 809 813 817 820 822 826 829 831 834 837 840 842 845 848 850 851 852 853 853 854 855 855
725 728 729 732 735 739 741 740 746 748 753 758 764 768 774 779 784 788 793 797 802 807 812 816 819 823 825 830 831 835 838 841 844 846 849 852 852 853 855 856 856 857 857
719 721 724 727 729 732 738 725 736 744 743 750 759 763 769 774 780 785 790 794 798 804 809 814 818 821 824 829 833 835 839 842 846 848 849 852 853 854 856 857 857 858 858
713 716 719 723 724 728 732 730 725 740 739 741 752 758 765 770 776 781 786 791 795 800 806 811 816 820 823 828 833 837 840 843 847 849 850 852 854 855 856 858 858 858 859
710 712 716 718 722 727 728 726 730 746 735 745 744 753 760 766 773 778 783 789 793 796 802 809 814 820 824 827 832 838 841 845 848 850 851 853 854 856 857 858 859 859 859
707 709 713 716 720 725 730 732 734 753 748 740 756 752 757 764 770 776 780 785 790 793 798 805 811 817 823 826 830 839 843 846 849 851 853 854 855 856 857 858 859 860 860
706 710 713 716 719 722 728 736 731 748 752 751 758 757 757 762 768 774 777 782 788 791 796 801 808 813 820 824 827 836 845 849 849 851 853 855 856 856 858 858 859 860 860
707 709 713 716 717 718 719 728 725 739 754 763 758 759 759 761 767 770 774 778 784 788 792 797 803 808 814 821 824 827 842 844 846 850 852 854 855 856 857 858 858 859 860
706 708 709 714 718 717 719 713 716 721 738 746 747 760 758 763 764 768 772 776 779 784 788 793 799 803 807 814 820 822 824 827 839 848 849 851 853 854 855 855 857 857 858
707 708 709 710 714 718 713 720 721 724 729 738 748 752 756 762 762 766 771 774 777 781 785 789 794 799 803 807 812 817 821 824 827 833 842 845 850 852 853 854 855 857 857
707 709 710 712 713 716 720 719 720 723 728 736 742 747 746 757 759 762 768 771 773 776 780 784 789 794 799 804 809 814 816 819 822 826 833 841 845 850 852 852 854 856 856